Regional Weather Roundup
Issued by NWS

Home | Current Version | Previous Version | Text Only | Print | Product List | Glossary On
Versions: 1 2 3 4 5 6 7 8 9 10 11 12 13 14 15 16 17 18 19 20 21 22 23 24 25 26 27 28 29 30 31 32 33 34 35 36 37 38 39 40 41 42 43 44 45 46 47 48 49 50
000
ASUS42 KFFC 221903
RWRGA
WEATHER ROUNDUP FOR GEORGIA
NATIONAL WEATHER SERVICE PEACHTREE CITY GA
300 PM EDT MON SEP 22 2014

NOTE: "FAIR" INDICATES FEW OR NO CLOUDS BELOW 12,000 FEET WITH NO
SIGNIFICANT WEATHER AND/OR OBSTRUCTIONS TO VISIBILITY.

* = USE WITH CAUTION. THE STATIONS MARKED WITH AN ASTERISK MAY NOT
REPORT WEATHER SUCH AS PRECIPITATION, FOG, OR THUNDER AND ARE NOT
QUALITY CONTROLLED BY NWS.

THE REMARK "TC" DENOTES TEMPERATURE READING IN DEGREES CELSIUS.

GAZ001>058-222000-
NORTH GEORGIA

CITY           SKY/WX    TMP DP  RH WIND       PRES   REMARKS
ATLANTA        MOSUNNY   80  48  32 NW9G20    30.05F
ATHENS         PTSUNNY   76  62  62 E8        30.05S
CHAMBLEE       SUNNY     79  49  34 N7G16     30.04F
PEACHTREE CITY SUNNY     80  50  34 NW9       30.04F
ROME           SUNNY     77  48  35 NE17G26   30.09F
WEST ATLANTA   SUNNY     79  54  41 NW9       30.05F
GAINESVILLE    MOSUNNY   75  52  44 SW3       30.07F
CARTERSVILLE   SUNNY     75  49  39 N12G20    30.09S


CITY           SKY/WX    TMP DP  RH WIND       PRES   REMARKS
DALTON*        SUNNY     72  50  46 N13G22    30.11S
LAWRENCEVILLE* SUNNY     79  46  31 CALM      30.04F
MARIETTA       MOSUNNY   78  55  44 NW13G25   30.06F
KENNESAW*      MOSUNNY   75  52  43 N7G17     30.08F
$$

GAZ059>098-102>109-222000-
CENTRAL GEORGIA

CITY           SKY/WX    TMP DP  RH WIND       PRES   REMARKS
AUGUSTA-BUSH   LGT RAIN  70  63  78 CALM      30.03F
AUGUSTA-DANIEL LGT RAIN  70  65  84 NW8       30.05F
COLUMBUS       CLOUDY    67  61  81 CALM      30.04F
MACON          LGT RAIN  66  66 100 CALM      30.04F FOG
ROBINS AFB     RAIN      67  65  93 CALM      30.04F FOG


CITY           SKY/WX    TMP DP  RH WIND       PRES   REMARKS
LAGRANGE*      CLOUDY    82  57  42 NW6       30.04F
SYLVANIA*      CLOUDY    90  74  60 CALM      29.98F HX  99
$$

GAZ099>101-110>166-222000-
SOUTH GEORGIA

CITY           SKY/WX    TMP DP  RH WIND       PRES   REMARKS
SAVANNAH       MOSUNNY   90  65  43 SW10      29.96F HX  92
VALDOSTA       MOSUNNY   89  60  37 VRB3      29.97F
ALMA           MOSUNNY   89  62  40 VRB3      29.98F
ST SIMONS      SUNNY     86  66  51 SE14      29.98F
FT STEWART     PTSUNNY   88  63  43 SW9       29.95F
ALBANY         PTSUNNY   86  68  54 NW7       29.99F
HUNTER AFB     SUNNY     87  65  49 VRB6      29.95F
MOODY AFB      MOSUNNY   89  59  36 SW5       29.98F
BRUNSWICK      MOSUNNY   90  59  35 SE3       29.98F


CITY           SKY/WX    TMP DP  RH WIND       PRES   REMARKS
BAINBRIDGE*    SUNNY     95  70  43 S3        29.97F HX 101
MOULTRIE*      SUNNY     88  61  40 W3        30.00F
VIDALIA*       CLOUDY    81  70  69 N16G25    29.99S
WAYCROSS*      PTSUNNY   91  66  43 NE5       29.97F HX  93
DOUGLAS*       SUNNY     90  61  37 CALM      29.99F
$$


USA.gov is the U.S. government's official web portal to all federal, state and local government web resources and services.